Nashua, NH

6:41 AM EST on November 20, 2019 (GMT -0500)
Boire

Weather History for KASH - October, 2019

Change the Weather History Date:

Wednesday, October 23, 2019

  Actual Average Record
Temperature  
Mean Temperature 55 °F -  
Max Temperature 66 °F 61 °F 79 °F (1979)
Min Temperature 43 °F 35 °F 19 °F (1955)
Degree Days  
Heating Degree Days 10    
Growing Degree Days 5 (Base 50)    
Moisture  
Dew Point 50 °F    
Average Humidity 86    
Maximum Humidity 100    
Minimum Humidity 37    
Precipitation  
Precipitation 0.00 in - - ()
Sea Level Pressure  
Sea Level Pressure 29.86 in    
Wind  
Wind Speed 4 mph ()    
Max Wind Speed 20 mph    
Max Gust Speed 29 mph    
Visibility 7.7 miles    
Events Rain    
Averages and records for this station are not official NWS values.
T = Trace of Precipitation, MM = Missing Value Source: Averaged Metar Reports

Daily Weather History Graph

Daily Weather History Graph

Search for Another Location

Airport or City:

Astronomy

Oct. 23, 2019 Rise Set
Actual Time 7:08 AM EDT 5:51 PM EDT
Civil Twilight 6:39 AM EDT 6:20 PM EDT
Nautical Twilight 6:06 AM EDT 6:53 PM EDT
Astronomical Twilight 5:34 AM EDT 7:25 PM EDT
Moon 1:13 AM EDT (10/23) 3:49 PM EDT (10/23)
Length of Visible Light 11h 40m
Length of Day
10h 42m
Waning Crescent, 27% of the Moon is Illuminated
Oct 23
Waning Crescent
Oct 27
New
Nov 4
First Quarter
Nov 12
Full
Nov 19
Last Quarter

Hourly Weather History & Observations

Time (EDT) Temp. Dew Point Humidity Pressure Visibility Wind Dir Wind Speed Gust Speed Precip Events Conditions
12:13 AM 53.6 °F 53.6 °F 100% 29.91 in 3.0 mi Calm Calm - N/A Rain Light Rain
12:30 AM 53.6 °F 53.6 °F 100% 29.90 in 3.0 mi Calm Calm - N/A Rain Light Rain
12:56 AM 54.0 °F 54.0 °F 100% 29.90 in 4.0 mi Calm Calm - N/A Rain Light Rain
1:25 AM 53.6 °F 53.6 °F 100% 29.86 in 2.0 mi Calm Calm - N/A Rain Light Rain
1:45 AM 53.6 °F 53.6 °F 100% 29.85 in 4.0 mi Calm Calm - N/A Rain Rain
1:56 AM 54.0 °F 54.0 °F 100% 29.86 in 4.0 mi NNW 3.5 mph - N/A Rain Rain
2:56 AM 54.0 °F 54.0 °F 100% 29.84 in 5.0 mi Calm Calm - N/A Rain Rain
3:11 AM 53.6 °F 53.6 °F 100% 29.81 in 4.0 mi Calm Calm - N/A Rain Light Rain
3:56 AM 54.0 °F 54.0 °F 100% 29.81 in 4.0 mi Calm Calm - N/A Rain Light Rain
4:56 AM 54.0 °F 54.0 °F 100% 29.78 in 10.0 mi Calm Calm - N/A Rain Light Rain
5:56 AM 54.0 °F 54.0 °F 100% 29.79 in 5.0 mi WNW 10.4 mph - N/A Rain Light Rain
6:11 AM 53.6 °F 53.6 °F 100% 29.77 in 4.0 mi WNW 10.4 mph - N/A Rain Rain
6:18 AM 53.6 °F 53.6 °F 100% 29.78 in 3.0 mi WNW 8.1 mph - N/A Rain Light Rain
6:26 AM 53.6 °F 53.6 °F 100% 29.77 in 3.0 mi NW 9.2 mph - N/A Rain Rain
6:39 AM 53.6 °F 53.6 °F 100% 29.78 in 8.0 mi WNW 8.1 mph - N/A Rain Rain
6:56 AM 54.0 °F 54.0 °F 100% 29.80 in 10.0 mi NW 8.1 mph - N/A Rain Light Rain
7:26 AM 53.6 °F 53.6 °F 100% 29.76 in 10.0 mi NW 4.6 mph - N/A Rain Light Rain
7:56 AM 54.0 °F 54.0 °F 100% 29.77 in 10.0 mi NW 6.9 mph - N/A   Mostly Cloudy
8:08 AM 53.6 °F 53.6 °F 100% 29.75 in 10.0 mi NW 8.1 mph - N/A   Overcast
8:56 AM 55.0 °F 55.0 °F 100% 29.80 in 10.0 mi NW 5.8 mph - N/A   Overcast
9:05 AM 55.4 °F 55.4 °F 100% 29.78 in 10.0 mi NW 8.1 mph - N/A   Overcast
9:34 AM 55.4 °F 55.4 °F 100% 29.78 in 10.0 mi NW 12.7 mph - N/A   Overcast
9:56 AM 55.9 °F 55.9 °F 100% 29.80 in 10.0 mi NW 11.5 mph - N/A   Mostly Cloudy
10:03 AM 55.4 °F 55.4 °F 100% 29.79 in 10.0 mi NW 10.4 mph - N/A   Mostly Cloudy
10:56 AM 61.0 °F 55.0 °F 81% 29.81 in 10.0 mi WNW 19.6 mph 24.2 mph N/A   Mostly Cloudy
11:56 AM 63.0 °F 51.1 °F 65% 29.82 in 10.0 mi WNW 16.1 mph 28.8 mph N/A   Scattered Clouds
12:56 PM 64.0 °F 46.9 °F 54% 29.81 in 10.0 mi WNW 15.0 mph 26.5 mph N/A   Mostly Cloudy
1:56 PM 66.0 °F 42.1 °F 42% 29.82 in 10.0 mi West 11.5 mph 20.7 mph N/A   Scattered Clouds
2:56 PM 66.0 °F 39.0 °F 37% 29.85 in 10.0 mi WNW 17.3 mph 28.8 mph N/A   Scattered Clouds
3:56 PM 64.0 °F 37.0 °F 37% 29.87 in 10.0 mi West 15.0 mph 21.9 mph N/A   Scattered Clouds
4:56 PM 63.0 °F 37.9 °F 40% 29.91 in 10.0 mi WNW 10.4 mph 16.1 mph N/A   Partly Cloudy
5:56 PM 60.1 °F 37.0 °F 42% 29.94 in 10.0 mi West 8.1 mph - N/A   Partly Cloudy
7:56 PM 54.0 °F 39.0 °F 57% 30.02 in 10.0 mi West 3.5 mph - N/A   Clear
8:56 PM 52.0 °F 39.0 °F 61% 30.05 in 10.0 mi WSW 3.5 mph - N/A   Clear
9:56 PM 46.0 °F 43.0 °F 89% 30.08 in 10.0 mi Calm Calm - N/A   Clear
10:56 PM 44.1 °F 42.1 °F 93% 30.10 in 10.0 mi Calm Calm - N/A   Clear
11:56 PM 43.0 °F 39.9 °F 89% 30.12 in 10.0 mi Calm Calm - N/A   Clear